User: anonymous   Login
Location: Maiden_LMO
(35.5760°N, 81.2120°W)
Time: 04:13:41
(UTC-04:00)
Language:

Cosmos 2278 Rocket - Orbit

View from above orbital plane
View from above orbital plane
View from above satellite
View from above satellite

Ground track
Ground track

The orbit data is extracted from the following two-line orbital elements,

1 23088U 94023B   15209.63505759 -.00000075  00000-0 -14463-4 0  9992
2 23088 070.9997 289.3029 0001511 037.6754 322.4474 14.14618749 98027
Epoch (UTC): 28 July 2015 15:14:28
Eccentricity: 0.0001511
inclination: 70.9997°
perigee height: 842 km
apogee height: 845 km
right ascension of ascending node: 289.3029°
argument of perigee: 37.6754°
revolutions per day: 14.14618749
mean anomaly at epoch: 322.4474°
orbit number at epoch: 9802

The dashed part of the orbit path shows where the satellite is in the earth's shadow,  

DLR